Weather in Zainsk

Russia / Republic of Tatarstan     55°17′56″N   52°00′23″E
temp.,
°C
wind,
m/s
gust,
m/s
humid.,
%
clouds,
%
prec.,
mm/h
press.,
hPa
HPBL,
m
20 september, mon
mon2000:00+2n2276100 0.0 102624
03:00+1nne118035 0.0 102710
06:000nne228128 0.0 102821
09:00+6ne44545 0.0 1028809
12:00+9ene3343100 0.0 10281154
15:00+9ene3442100 0.0 10271080
18:00+5e3355100 0.0 102846
21:00+4e3561100 0.0 1028100
21 september, tue
tue2100:00+3e2666100 0.0 1028130
03:00+3e3670100 0.0 1027140
06:00+3e3772100 0.0 1027213
09:00+7e5656100 0.0 1026506
12:00+11ese4543100 0.0 1025965
15:00+11ese454088 0.0 1024966
18:00+8e355379 0.0 102372
21:00+6e356046 0.0 102388
22 september, wed
wed2200:00+5e356275 0.0 102283
03:00+5e3762100 0.0 1021142
06:00+7e51157100 0.0 1021251
09:00+10e61150100 0.0 1020381
12:00+13ese7943100 0.0 1020616
15:00+12ese5949100 0.0 1020417
18:00+11ese595487 0.0 1021317
21:00+11ese4954100 0.0 1021230
23 september, thu
thu2300:00+11ese3653100 0.0 1021139
03:00+11ese3854100 0.0 1021188
06:00+11ese41054100 0.0 1021271
09:00+15sse61040100 0.0 1022631
12:00+15sse51037100 0.0 1022557
15:00+15ssw2642100 0.0 1022299
18:00+13s2241100 0.0 102231
21:00+8sse51490100 3.1 1023667
24 september, fri
fri2400:00+10sse61389100 1.3 1022551
03:00+10se61385100 1.4 1021465
06:00+11sse7147593 0.0 1021595
09:00+11sse71360100 0.0 1020638
12:00+12sse71349100 0.0 1019709
15:00+10ese51365100 0.8 1017544
18:00+12ese61347100 0.0 1015464
21:00+14se81736100 0.0 1013696